This is the latest recevied weather packets stored in our database for station/object WX9WTF. If no packets are shown the sender has not sent any weather packets the latest 10 day(s).
| Time | Temp. | Humidity | Pressure | Rain* | Wind** | Luminosity | Snow |
|---|---|---|---|---|---|---|---|
| 1778186500 | 20.56° C | 50% | 1013.6 hPa | 0 mm | - | 751 W/m² | - |
| 1778186198 | 20.56° C | 50% | 1013.9 hPa | 0 mm | - | 775 W/m² | - |
| 1778185895 | 20.56° C | 50% | 1013.8 hPa | 0 mm | - | 786 W/m² | - |
| 1778185590 | 21.11° C | 54% | 1013.9 hPa | 0 mm | - | 766 W/m² | - |
| 1778185287 | 20.56° C | 53% | 1013.9 hPa | 0 mm | - | 727 W/m² | - |
| 1778184982 | 20° C | 54% | 1014.1 hPa | 0 mm | - | 819 W/m² | - |
| 1778184679 | 20° C | 53% | 1014.1 hPa | 0 mm | - | 874 W/m² | - |
| 1778184375 | 20.56° C | 53% | 1014.1 hPa | 0 mm | - | 836 W/m² | - |
| 1778184071 | 20.56° C | 52% | 1014.1 hPa | 0 mm | - | 804 W/m² | - |
| 1778183769 | 20° C | 51% | 1014.2 hPa | 0 mm | - | 827 W/m² | - |
| 1778183466 | 20° C | 55% | 1014.3 hPa | 0 mm | - | 873 W/m² | - |
| 1778183162 | 20° C | 51% | 1014.4 hPa | 0 mm | - | 858 W/m² | - |
| 1778182858 | 20° C | 52% | 1014.6 hPa | 0 mm | - | 854 W/m² | - |
| 1778182555 | 20° C | 54% | 1014.6 hPa | 0 mm | - | 255 W/m² | - |
| 1778182252 | 19.44° C | 54% | 1014.7 hPa | 0 mm | - | 682 W/m² | - |
| 1778181948 | 19.44° C | 57% | 1014.6 hPa | 0 mm | - | 883 W/m² | - |
| 1778181645 | 19.44° C | 57% | 1014.7 hPa | 0 mm | - | 906 W/m² | - |
| 1778181340 | 18.33° C | 55% | 1014.8 hPa | 0 mm | - | 989 W/m² | - |
| 1778181038 | 18.33° C | 60% | 1015 hPa | 0 mm | - | 947 W/m² | - |
| 1778180735 | 18.89° C | 54% | 1015.1 hPa | 0 mm | - | 279 W/m² | - |
| 1778180434 | 18.89° C | 63% | 1015.3 hPa | 0 mm | - | 967 W/m² | - |
| 1778180132 | 18.33° C | 56% | 1015.3 hPa | 0 mm | - | 303 W/m² | - |
| 1778179828 | 18.33° C | 54% | 1015.5 hPa | 0 mm | - | 998 W/m² | - |
| 1778179526 | 18.33° C | 55% | 1015.5 hPa | 0 mm | - | 891 W/m² | - |
| 1778179224 | 18.89° C | 55% | 1015.7 hPa | 0 mm | - | 980 W/m² | - |
* Rain latest hour (hover to see other rain measurements)
** Current wind speed in m/s (hover to see current wind gust speed)